Mobile - Dauphin Island Weather Center

Moon Phase Calendar



Online Cameras

 


      

Current Conditions in Point Clear
12/4/2022 4:53:13 AM

66°F
Feels Like 66
Fog
Humidity
98%
Pressure
30.21"
Wind
6.9 mph (N)
Dew Point
65°F
UV Index
0/10 (Low)
Visibility
0 mi

Hourly Forecast

Date & Time Sun, Dec 4
4:00 AM
Sun, Dec 4
5:00 AM
Sun, Dec 4
6:00 AM
Sun, Dec 4
7:00 AM
Sun, Dec 4
8:00 AM
Sun, Dec 4
9:00 AM
Sun, Dec 4
10:00 AM
Sun, Dec 4
11:00 AM
Sun, Dec 4
12:00 PM
Sun, Dec 4
1:00 PM
Sun, Dec 4
2:00 PM
Sun, Dec 4
3:00 PM
Sun, Dec 4
4:00 PM
Sun, Dec 4
5:00 PM
Sun, Dec 4
6:00 PM
Sun, Dec 4
7:00 PM
Sun, Dec 4
8:00 PM
Sun, Dec 4
9:00 PM
Sun, Dec 4
10:00 PM
Sun, Dec 4
11:00 PM
Mon, Dec 5
12:00 AM
Mon, Dec 5
1:00 AM
Mon, Dec 5
2:00 AM
Mon, Dec 5
3:00 AM
Mon, Dec 5
4:00 AM
Mon, Dec 5
5:00 AM
Mon, Dec 5
6:00 AM
Mon, Dec 5
7:00 AM
Mon, Dec 5
8:00 AM
Mon, Dec 5
9:00 AM
Mon, Dec 5
10:00 AM
Mon, Dec 5
11:00 AM
Mon, Dec 5
12:00 PM
Mon, Dec 5
1:00 PM
Mon, Dec 5
2:00 PM
Mon, Dec 5
3:00 PM
Mon, Dec 5
4:00 PM
Mon, Dec 5
5:00 PM
Mon, Dec 5
6:00 PM
Mon, Dec 5
7:00 PM
Mon, Dec 5
8:00 PM
Mon, Dec 5
9:00 PM
Mon, Dec 5
10:00 PM
Mon, Dec 5
11:00 PM
Tue, Dec 6
12:00 AM
Tue, Dec 6
1:00 AM
Tue, Dec 6
2:00 AM
Tue, Dec 6
3:00 AM
Condition
Clouds

Clouds

Clouds

Clouds

Clouds

Clouds

Clouds

Clouds

Clouds

Clouds

Clouds

Clouds

Clouds

Clouds

Clouds

Clouds

Clouds

Clouds

Clouds

Clouds

Clouds

Clouds

Clouds

Clouds

Clouds

Clouds

Clouds

Clouds

Clouds

Clouds

Clouds

Clouds

Clouds

Clouds

Clouds

Clouds

Clouds

Clouds

Clouds

Clouds

Clouds

Clouds

Clouds

Clouds

Clouds

Clouds

Clouds

Clouds
Temperature 66°F66°F65°F65°F65°F65°F65°F65°F66°F67°F68°F68°F68°F67°F67°F67°F66°F65°F64°F64°F63°F63°F64°F64°F64°F64°F64°F64°F65°F65°F66°F67°F67°F67°F67°F67°F67°F66°F66°F66°F66°F66°F66°F66°F66°F66°F66°F65°F
Feels Like 67°F66°F66°F66°F66°F66°F66°F66°F66°F67°F68°F68°F68°F67°F68°F67°F66°F65°F64°F64°F63°F64°F64°F64°F64°F64°F64°F64°F65°F66°F66°F67°F67°F68°F68°F68°F67°F67°F66°F66°F67°F66°F66°F66°F66°F66°F66°F66°F
Cloudiness 100%100%100%100%100%100%100%98%96%84%54%38%31%26%32%100%78%68%61%60%66%99%99%99%99%100%100%100%100%100%100%100%100%100%100%100%100%99%89%83%83%83%87%90%91%90%68%50%
Visibility 1 mi1 mi4 mi6 mi6 mi6 mi6 mi6 mi6 mi6 mi6 mi6 mi6 mi6 mi6 mi6 mi6 mi6 mi6 mi6 mi6 mi6 mi6 mi6 mi6 mi6 mi6 mi6 mi6 mi6 mi6 mi6 mi6 mi6 mi6 mi6 mi6 mi6 mi6 mi6 mi6 mi6 mi6 mi6 mi6 mi6 mi6 mi6 mi
Precipitation 19%19%19%26%27%23%19%15%10%0%0%0%0%0%0%0%0%0%0%0%0%0%0%0%0%0%0%0%0%0%0%0%0%0%0%0%0%0%0%0%0%0%0%0%0%0%0%0%
Humidity 99%98%98%97%97%95%93%91%88%85%81%78%79%81%80%80%82%84%85%86%87%87%86%86%86%86%85%85%85%83%83%82%83%84%85%85%86%87%89%90%92%93%93%94%95%95%95%95%
Dew Point 65°F65°F65°F64°F64°F64°F63°F63°F62°F62°F61°F61°F61°F61°F61°F61°F60°F60°F59°F59°F59°F59°F59°F59°F59°F59°F59°F60°F60°F60°F61°F61°F62°F62°F62°F62°F63°F62°F62°F63°F63°F64°F64°F64°F64°F64°F64°F64°F
Pressure 30.21"30.21"30.21"30.21"30.24"30.24"30.24"30.24"30.18"30.15"30.15"30.12"30.12"30.12"30.15"30.15"30.15"30.15"30.12"30.09"30.09"30.09"30.09"30.06"30.06"30.06"30.09"30.09"30.09"30.12"30.09"30.09"30.06"30.03"30.03"30.03"30.03"30.03"30.03"30.06"30.06"30.06"30.06"30.06"30.06"30.06"30.06"30.06"
Wind Speed 5.1 mph6 mph6.8 mph7.4 mph7.7 mph8.5 mph9.4 mph8.7 mph7 mph6.9 mph6.4 mph6.1 mph4.6 mph4.5 mph5 mph5.5 mph6.7 mph6.6 mph6.7 mph7.8 mph6 mph2.7 mph1.6 mph0.8 mph0.6 mph1.5 mph2.4 mph2.8 mph2.7 mph3.4 mph5.3 mph5.3 mph5.9 mph5.6 mph5.8 mph6.6 mph6.8 mph6.9 mph7.6 mph7.5 mph8.2 mph8 mph8.2 mph8.1 mph7.5 mph7.5 mph7.1 mph6.9 mph
Wind
Direction
345°
NNW
356°
N
354°
N
357°
N

N

N

N

N
355°
N
352°
N
350°
N
349°
N
350°
N
358°
N
360°
N
11°
N
16°
NNE
29°
NNE
45°
NE
64°
ENE
76°
ENE
97°
E
99°
E
105°
ESE
86°
E
72°
ENE
87°
E
112°
ESE
134°
SE
156°
SSE
168°
SSE
171°
S
172°
S
175°
S
178°
S
174°
S
177°
S
175°
S
170°
S
171°
S
176°
S
181°
S
185°
S
190°
S
197°
SSW
198°
SSW
199°
SSW
201°
SSW

Daily Forecast

Date High Low Precip. Humidity
Today
Dec 4

Clouds
68 °F
64 °F
33%
91%
Monday
Dec 5

Clouds
67 °F
63 °F
0%
82%
Tuesday
Dec 6

Clouds
69 °F
65 °F
8%
84%
Wednesday
Dec 7

Rain
70 °F
66 °F
28%
82%
Thursday
Dec 8

Clouds
69 °F
65 °F
0%
85%
Friday
Dec 9

Clouds
70 °F
63 °F
0%
83%
Saturday
Dec 10

Clear
65 °F
59 °F
0%
63%
Sunday
Dec 11

Rain
64 °F
55 °F
45%
52%
Monday
Dec 12

Clouds
60 °F
49 °F
0%
32%
Tuesday
Dec 13

Rain
65 °F
48 °F
20%
59%
Wednesday
Dec 14

Rain
69 °F
65 °F
61%
87%
Thursday
Dec 15

Rain
68 °F
63 °F
97%
95%
Friday
Dec 16

Rain
67 °F
50 °F
100%
65%
Saturday
Dec 17

Clouds
52 °F
41 °F
0%
52%
Sunday
Dec 18

Clouds
54 °F
42 °F
0%
41%
Monday
Dec 19

Clouds
61 °F
46 °F
0%
57%

Temperature 8-14 Day Outlook



Precipitation 8-14 Day Outlook




Quick Links
Mobile - Dauphin Island News
Mobile - Dauphin Island Photos
Mobile - Dauphin Island Videos




About Us
Contact Us
Site Map
Search Site
Advertise With Us
   
Mobile.USGulf.info
THE MOBILE - DAUPHIN ISLAND WEBSITE

Copyright 2022, Coastal Town
Privacy    |    Legal